Regional Weather Roundup
Issued by NWS

Home | Current Version | Previous Version | Graphics & Text | Print | Product List | Glossary On
Versions: 1 2 3 4 5 6 7 8 9 10 11 12 13 14 15 16 17 18 19 20 21 22 23 24 25 26 27 28 29 30 31 32 33 34 35 36 37 38 39 40 41 42 43 44 45 46 47 48 49 50
926
ASUS43 KTOP 270459
RWRKS

WEATHER ROUNDUP FOR KANSAS
NATIONAL WEATHER SERVICE GOODLAND KS
1200 AM CDT SAT AUG 27 2016

NOTE:  "FAIR" INDICATES FEW OR NO CLOUDS BELOW 12,000 FEET WITH NO
SIGNIFICANT WEATHER AND/OR OBSTRUCTIONS TO VISIBILITY.

KSZ001>006-013>018-027>032-041>047-270600-
NORTHWEST KANSAS

CITY           SKY/WX    TMP DP  RH WIND       PRES   REMARKS
GOODLAND       CLOUDY    53  51  93 SE7       30.09R
HAYS           CLOUDY    64  52  63 N17G24    30.09R
HILL CITY      CLOUDY    60  58  92 SE6       30.07S
RUSSELL        MOCLDY    66  65  96 NE6       30.04R
$$

KSZ061>065-074>080-084>089-270600-
SOUTHWEST KANSAS

CITY           SKY/WX    TMP DP  RH WIND       PRES   REMARKS
DODGE CITY     CLOUDY    69  64  84 SE9       30.05S
ELKHART          N/A     66  55  67 S9          N/A
GARDEN CITY    CLOUDY    68  62  81 SE9       30.04S
GREAT BEND     PTCLDY    68  61  77 SE8       30.02S
LIBERAL        CLOUDY    72  63  73 S9        30.06F
$$

KSZ066>073-081>083-090>101-270600-
SOUTHEAST KANSAS

CITY           SKY/WX    TMP DP  RH WIND       PRES   REMARKS
CHANUTE        CLOUDY    72  70  93 SE5       30.03R
COFFEYVILLE    CLOUDY    74  71  91 SE3       30.03R
HUTCHINSON     MOCLDY    72  68  87 CALM      30.02S
MEDICINE LODGE   N/A     73  67  81 S7        30.00F
NEWTON         PTCLDY    71  68  90 SE7       30.04R
PARSONS        CLOUDY    71  69  93 E3        30.04R
WICHITA INTL   PTCLDY    73  69  87 S8        30.02S
WICHITA JABRA  MOCLDY    73  69  87 S8        30.02S
WINFIELD       PTCLDY    70  68  93 SE3       30.03S
$$

KSZ007>012-019>026-033>040-048>060-102>105-270600-
NORTHEAST KANSAS

CITY           SKY/WX    TMP DP  RH WIND       PRES   REMARKS
CONCORDIA      CLOUDY    66  64  93 SE5       30.02F
EMPORIA        PTCLDY    70  68  93 S6        30.03R
LAWRENCE       TSTM      70  70 100 CALM      30.04S
MANHATTAN      MOCLDY    70  68  93 NE5       30.02S
OLATHE IND     LGT RAIN  71  70  96 E5        30.06S
OLATHE EXE     LGT RAIN N/A N/A N/A CALM      30.06R
SALINA         MOCLDY    73  67  81 E6        30.02S
TOPEKA BILLARD MOCLDY    71  68  90 E3        30.04R
TOPEKA FORBES  MOCLDY    72  69  90 E3        30.05S
$$




USA.gov is the U.S. government's official web portal to all federal, state and local government web resources and services.